Location: Seattle
(47.6064°N, 122.3308°W)
Time: 00:42:53
(UTC-08:00)

Tiros 1 - Pass Details

Date: 05 December 2020
Orbit: 630 x 663 km, 48.4° (Epoch: 28 January)

Event Time Altitude Azimuth Distance (km) Brightness Sun altitude
Rises 12:46:43 0° 221° (SW) 2,979 11.6 19.1°
Reaches altitude 10° 12:49:12 10° 212° (SSW) 2,072 11.3 19.0°
Maximum altitude 12:53:33 35° 147° (SSE) 1,061 9.1 18.9°
Drops below altitude 10° 12:57:55 10° 82° (E) 2,082 9.6 18.7°
Sets 13:00:25 0° 74° (ENE) 2,996 10.3 18.6°
